Tracking 28790 objects as of 19-Apr-2024
HD Live streaming from Space Station
objects crossing your sky now

STARLINK-4670

Track STARLINK-4670 now!
10-day predictions
STARLINK-4670 is classified as:


NORAD ID: 53744
Int'l Code: 2022-107AW
Perigee: 545.9 km
Apogee: 547.8 km
Inclination: 53.2 °
Period: 95.4 minutes
Semi major axis: 6917 km
RCS: Unknown
Launch date: September 5, 2022
Source: United States (US)
Launch site: AIR FORCE EASTERN TEST RANGE (AFETR)
Your satellite tracking list
Your tracking list is empty




NASA's NSSDC Master Catalog

Two Line Element Set (TLE):
1 53744U 22107AW  24110.16239692  .00002081  00000-0  14880-3 0  9996
2 53744  53.2164 119.1495 0001398  89.8765 270.2387 15.08839965 89729
Source of the keplerian elements: AFSPC